Theta_e
356 356 358 358 356 357 357 356 356 357 356 355 354 353 352 354 356 354 352 351 349 347 346 349 353 357 356 354 357 358 358 359 355 354 356 357 361 357 346 347 352 353 353 349 351 355 352 347 345 341 338 339 339 338 338 338 339 337 328 322 323 324 324 323 322 321 320 319 318 318 317 318 322 329
357 356 357 358 357 358 358 356 357 360 359 357 355 354 352 353 355 356 356 355 352 350 347 347 353 356 355 354 355 356 357 359 358 356 355 358 359 353 350 356 356 356 357 352 351 355 352 347 345 342 340 340 339 338 338 337 338 334 325 322 322 322 322 321 320 319 319 318 317 317 317 317 318 321
358 359 359 360 360 358 359 358 358 360 360 359 356 354 354 354 355 356 357 357 355 353 349 346 350 353 354 354 352 353 356 357 358 357 356 359 357 353 356 360 358 360 360 354 351 354 353 349 346 344 342 341 340 339 338 336 336 333 326 322 322 322 321 320 319 318 317 317 317 317 317 317 318 318
358 361 361 362 362 360 361 360 359 359 361 360 359 356 355 356 357 357 358 359 357 355 352 351 351 350 352 354 354 356 357 356 357 357 356 359 358 357 360 360 359 361 360 355 351 353 354 350 347 345 343 342 340 339 339 337 336 333 328 324 322 322 321 320 318 317 316 316 317 316 317 317 318 318
358 361 361 362 362 360 361 360 358 358 359 360 359 358 357 357 357 357 358 359 359 356 354 354 353 351 351 353 355 357 356 355 358 357 355 357 357 357 360 359 359 360 359 356 353 353 354 351 348 346 344 343 341 340 340 338 335 333 330 327 323 321 321 320 318 317 316 316 317 317 318 318 319 319
358 359 359 359 359 358 358 358 356 354 354 355 356 357 357 356 355 356 357 359 359 358 356 355 354 353 353 353 354 357 357 356 358 357 356 356 355 354 356 359 360 359 358 358 355 353 354 353 350 348 346 345 342 341 341 339 336 333 331 329 324 321 321 320 318 317 316 316 317 317 318 319 319 320
356 356 356 357 356 354 354 355 355 353 351 351 352 354 356 356 355 355 357 359 360 360 357 355 354 353 354 355 356 357 358 358 360 360 359 356 354 354 353 354 359 360 359 358 355 352 352 354 353 350 348 346 344 342 341 340 337 333 332 330 325 321 321 320 318 316 315 316 317 317 318 319 320 320
354 354 355 354 353 352 353 354 354 353 351 350 350 351 352 355 356 355 356 359 361 361 360 358 357 355 355 358 358 358 358 358 359 360 360 358 356 356 354 352 356 360 357 356 355 353 353 355 355 353 351 349 346 343 341 341 339 334 332 331 326 322 320 320 319 317 315 315 316 317 317 318 319 321
354 354 354 353 353 352 353 353 352 352 352 351 350 350 351 352 354 354 355 357 360 361 362 362 361 359 359 360 360 360 359 359 358 358 360 361 360 360 358 354 355 357 356 354 356 356 354 356 355 354 352 351 349 345 341 340 339 335 332 332 327 322 320 320 318 317 316 315 315 316 317 317 318 320
354 354 354 353 353 353 353 352 351 350 351 352 351 351 351 352 352 353 355 356 358 360 361 362 361 360 359 359 360 361 360 360 359 356 354 355 357 361 363 361 357 355 356 357 358 357 356 356 356 354 352 351 350 348 344 341 339 336 333 332 329 322 320 320 318 317 316 315 315 316 316 317 317 319
351 351 352 353 353 353 353 353 351 350 351 352 352 352 352 353 353 353 354 355 357 359 359 359 359 358 358 358 358 359 360 361 361 359 357 354 355 358 361 363 360 356 357 358 358 356 356 356 356 355 352 351 351 350 347 343 340 337 333 332 330 324 320 320 318 317 316 315 315 315 315 316 317 317
348 347 347 348 348 349 351 353 353 352 351 351 352 352 352 354 355 354 353 353 354 356 357 357 356 356 355 355 355 355 356 357 360 360 360 359 359 358 358 359 360 360 359 359 357 355 356 356 356 354 352 351 351 349 348 345 341 338 334 332 331 325 321 320 318 316 316 315 314 315 315 315 316 317
347 345 344 343 343 344 346 349 352 352 351 351 352 353 354 355 356 357 356 355 355 355 356 356 355 355 354 354 354 354 354 355 358 358 356 356 357 357 357 357 359 360 360 358 356 356 356 356 355 354 353 352 350 348 347 345 342 338 336 333 331 327 321 320 319 316 315 315 314 314 315 315 316 317
346 345 343 342 342 342 342 344 347 349 349 348 346 346 351 356 359 360 359 358 356 356 356 356 355 353 351 351 351 351 352 352 353 353 353 355 357 357 358 359 358 358 359 358 358 358 357 355 354 355 354 352 350 348 346 345 342 340 338 334 332 328 322 320 319 316 315 315 314 314 314 315 316 317
347 345 344 343 342 342 343 343 344 345 344 342 338 334 336 343 352 358 360 360 359 357 356 356 355 353 350 349 347 347 345 344 344 345 346 350 355 356 358 359 358 357 358 359 360 359 358 356 356 357 356 353 351 349 347 345 343 342 340 336 332 329 324 320 318 316 315 314 313 313 314 315 316 317
349 347 345 343 342 342 343 345 347 347 346 344 339 333 328 329 336 343 349 354 357 359 360 358 356 355 352 350 348 347 346 344 344 345 347 349 353 356 357 358 358 357 357 359 361 360 358 356 356 359 359 356 354 352 349 347 345 344 343 338 333 330 325 320 318 317 315 314 314 313 314 315 316 317
350 350 349 347 345 343 342 343 347 351 353 352 347 340 334 329 328 331 335 341 345 351 357 359 359 358 357 356 354 352 351 351 351 352 352 352 353 355 356 357 357 356 357 358 359 359 357 354 353 357 358 357 356 354 351 350 347 346 345 339 333 331 326 320 318 317 315 315 314 313 313 314 316 317
349 351 352 352 351 348 345 344 345 350 355 358 356 351 346 338 332 328 328 331 335 341 347 352 354 356 357 359 359 358 357 358 358 358 356 354 353 354 356 356 357 357 357 357 357 357 356 353 351 351 353 355 356 355 353 351 348 346 345 341 335 332 327 320 317 317 316 316 315 314 313 314 315 316
344 348 351 354 354 354 352 348 345 346 352 358 360 359 357 353 348 342 335 330 329 332 336 341 344 346 350 355 357 358 359 360 360 359 359 358 357 358 358 358 357 356 355 355 357 358 357 353 350 349 350 354 357 354 351 350 348 346 345 343 337 332 327 320 317 317 317 316 316 314 313 314 315 316
343 345 348 351 353 355 355 353 349 346 348 354 358 360 360 359 358 356 351 345 339 335 334 336 338 340 345 350 352 353 354 356 358 359 359 360 361 362 362 359 356 354 351 351 352 356 357 355 352 350 349 353 355 353 351 350 349 346 346 343 339 334 327 320 317 317 317 317 317 315 314 314 315 320
348 348 348 350 352 354 353 354 353 351 349 351 355 358 359 358 356 355 354 352 351 348 344 341 341 341 343 345 348 350 351 353 354 356 359 360 361 363 362 358 354 351 349 348 347 350 354 354 352 351 350 350 353 353 351 349 348 346 345 343 340 335 327 320 317 318 317 317 317 316 315 314 316 325
353 352 350 349 351 354 354 353 354 354 353 353 354 356 356 356 356 354 350 348 349 350 351 349 347 347 347 347 347 348 350 351 353 355 358 359 359 360 360 358 355 352 349 347 346 347 349 350 350 351 351 350 351 352 350 349 347 345 343 342 339 334 327 321 318 318 317 317 317 317 316 315 317 327
356 355 353 351 350 351 353 354 355 356 355 355 356 356 356 355 355 353 350 348 347 348 352 353 353 352 352 352 352 350 350 351 353 354 356 358 357 357 357 357 356 355 352 348 348 349 348 348 349 350 351 351 352 352 351 349 348 344 343 342 339 334 328 321 318 317 317 317 317 317 317 316 317 325
357 357 356 355 353 351 351 352 354 355 355 356 356 357 357 357 356 354 351 349 348 348 350 353 355 356 355 354 354 354 352 352 353 353 353 356 357 357 356 356 356 355 352 348 347 350 349 349 349 349 349 350 349 351 351 349 347 345 343 342 338 333 329 323 318 317 317 318 318 318 318 317 317 320
358 358 358 358 357 356 354 352 352 352 353 354 355 357 357 357 356 355 353 353 351 350 350 351 354 357 358 358 358 359 359 358 358 356 353 352 354 355 355 355 355 354 353 350 349 351 353 352 351 349 349 349 348 350 352 351 347 345 343 340 336 334 332 327 322 319 318 317 317 318 318 318 317 317
358 358 358 358 358 358 357 356 355 354 353 353 353 354 354 354 354 354 354 354 354 353 353 353 353 354 354 357 358 360 362 362 362 361 358 354 352 352 353 353 353 353 353 353 352 353 355 355 354 352 351 351 351 351 352 352 350 346 342 339 336 335 334 330 327 325 324 322 319 318 318 318 318 317
358 359 359 359 358 358 357 357 357 356 355 354 353 353 352 351 352 352 352 353 353 354 354 355 355 355 354 354 355 356 358 359 359 360 360 358 355 353 351 351 351 351 351 352 354 356 356 357 357 356 355 354 354 353 352 352 353 349 345 343 341 337 334 331 330 330 329 329 325 320 318 318 318 317
357 358 359 359 360 359 358 358 357 356 356 355 354 354 353 352 351 350 350 351 352 353 354 355 355 356 355 355 356 356 356 357 357 356 355 356 358 357 355 352 351 350 351 352 354 357 359 360 359 359 359 358 356 355 354 352 352 351 349 347 344 340 336 332 331 330 330 330 328 324 322 323 322 319
355 356 357 357 358 358 358 358 357 357 356 355 355 354 353 352 352 350 349 350 351 352 354 355 355 355 356 356 356 357 358 357 357 358 356 353 353 355 357 356 354 353 353 352 353 355 359 362 362 361 361 359 358 357 356 354 353 351 350 348 345 343 339 334 332 331 329 329 328 328 328 329 327 325
354 354 355 356 355 355 355 355 355 356 356 355 354 354 353 352 351 350 349 350 351 352 353 354 355 355 356 356 356 357 359 359 358 359 358 356 354 354 355 357 357 357 357 356 356 356 357 360 362 362 362 361 359 359 358 356 355 353 351 349 347 345 342 335 332 331 329 329 329 328 328 328 327 326
354 353 353 353 354 354 353 353 353 353 353 353 353 353 353 352 352 350 350 350 352 353 353 354 355 355 356 358 357 357 359 360 359 360 360 359 357 356 356 357 358 359 360 360 360 360 360 360 361 361 362 361 360 359 358 357 356 354 352 349 347 346 342 335 331 331 330 329 329 328 328 327 325 325
352 351 351 351 352 353 353 352 352 352 353 353 353 353 353 352 352 351 350 350 351 353 355 355 355 355 356 357 358 358 359 359 359 361 362 361 360 358 358 358 358 359 360 361 361 360 360 360 360 360 361 361 360 359 358 357 356 355 353 350 346 345 342 336 332 332 331 329 329 329 328 328 326 324
349 349 350 352 353 354 355 355 354 355 356 355 355 355 355 354 353 352 351 351 352 353 355 356 356 357 357 357 358 358 358 358 359 361 362 363 363 362 361 360 359 358 358 359 360 360 359 360 360 359 359 359 359 358 358 357 356 354 354 351 347 345 344 339 334 333 331 329 329 329 329 329 328 328
350 349 350 353 355 356 357 358 357 357 358 358 358 358 357 356 356 356 354 353 353 353 354 355 356 357 358 358 359 359 358 359 359 360 361 362 363 363 363 363 361 360 358 358 358 359 359 360 359 359 359 359 359 358 357 357 357 355 354 353 350 347 346 341 335 333 332 330 330 330 330 330 329 329
351 350 351 353 355 357 358 358 359 359 360 359 360 360 359 359 358 358 357 357 356 355 355 355 355 356 357 358 359 359 359 359 359 359 359 360 362 363 363 363 362 361 360 359 358 359 358 359 360 360 360 359 358 358 357 357 357 356 354 352 351 349 346 341 336 333 332 331 330 329 329 330 330 330
351 351 351 352 355 358 358 358 359 360 360 360 360 360 361 360 360 360 359 359 358 357 356 356 356 356 356 357 358 359 359 359 359 359 359 358 359 360 361 363 362 361 360 359 359 359 359 359 360 360 359 359 358 357 357 356 356 356 354 353 351 350 346 341 337 334 333 333 332 330 329 329 330 331
352 352 352 353 356 358 359 359 359 359 359 360 360 360 360 361 361 361 361 360 359 358 357 356 357 357 357 357 357 358 359 359 359 359 358 358 357 357 358 360 361 361 361 360 359 358 358 359 361 360 358 358 356 354 354 355 354 354 354 353 351 349 345 341 337 333 333 333 333 332 330 330 329 330
351 351 351 353 355 357 359 359 359 359 359 359 360 360 360 360 361 361 361 361 361 360 358 358 357 357 357 358 358 358 358 358 358 358 358 357 356 355 356 358 360 361 361 360 359 359 359 360 361 360 358 357 356 353 354 355 355 353 353 353 352 349 345 340 336 333 333 334 334 333 331 329 329 330
350 350 350 352 355 358 360 360 359 359 359 359 360 360 360 361 361 361 362 362 362 362 361 360 359 358 357 356 356 355 355 355 355 356 356 357 356 355 356 358 359 360 360 360 359 359 359 360 361 360 358 357 356 355 355 356 355 354 352 351 352 350 345 339 336 334 333 334 334 333 332 331 331 331
351 350 351 354 357 359 360 360 360 360 359 359 360 360 360 360 361 361 362 362 361 361 360 359 358 356 355 355 355 355 355 355 353 354 356 356 354 353 355 358 359 360 360 360 360 359 359 360 361 360 359 357 357 356 356 355 354 352 350 349 350 349 344 339 335 334 334 334 333 333 332 331 331 331
352 351 352 354 357 359 360 360 360 360 360 360 360 361 361 362 362 362 362 360 356 355 356 357 357 356 357 356 357 356 355 355 354 353 355 355 353 353 356 358 359 360 361 361 360 360 359 359 359 359 359 357 355 353 352 352 351 349 346 345 347 345 341 337 335 335 334 333 332 332 332 332 332 333
356 356 356 357 358 359 360 360 360 360 360 360 361 361 362 362 362 363 362 358 355 357 358 356 356 356 357 357 358 357 355 355 354 353 353 354 353 355 357 358 359 360 361 360 360 360 359 359 359 360 358 356 353 351 350 350 351 348 342 341 342 342 338 335 334 335 334 333 332 331 332 332 333 334
357 358 359 359 359 359 359 359 360 360 360 360 361 361 362 362 362 364 363 360 359 360 359 357 356 356 356 357 358 357 356 356 355 354 354 355 356 357 358 359 359 359 360 360 359 359 358 357 358 358 357 355 352 351 350 351 351 348 342 338 338 338 337 334 333 334 335 333 332 332 333 333 334 333
356 357 358 358 359 360 359 359 358 358 358 358 359 360 360 359 360 362 365 364 363 361 360 360 359 357 356 357 357 356 355 356 356 356 356 357 358 358 358 359 359 358 358 358 357 357 357 357 356 356 356 354 352 351 350 350 347 344 341 339 337 336 335 333 333 333 333 332 331 332 332 332 332 331
350 351 352 352 353 355 356 357 357 355 354 354 356 358 358 357 358 361 364 365 364 362 361 361 360 358 357 357 356 356 356 356 356 357 358 358 358 358 358 358 358 357 357 356 356 356 356 355 354 353 352 352 351 348 347 345 343 341 340 339 336 333 332 332 330 329 329 330 330 330 330 329 329 327
Wind_Speed
5 5 5 4 4 3 2 3 3 0 1 2 2 3 2 2 3 2 2 2 3 5 6 5 5 3 3 3 4 4 4 7 7 7 5 5 7 11 12 12 11 10 11 13 12 12 13 11 10 11 11 13 13 12 12 12 13 15 17 18 17 16 16 16 16 16 16 16 16 16 15 13 12 10
4 4 3 4 4 3 3 4 3 2 2 3 4 4 3 3 4 3 1 3 5 5 6 5 2 2 2 4 5 4 5 9 8 7 6 5 8 12 11 9 10 11 11 13 13 12 12 11 10 10 10 11 12 11 12 13 14 15 17 17 17 16 16 16 16 16 15 15 16 15 14 12 11 10
5 4 4 3 3 4 4 4 4 2 3 4 5 5 5 5 5 4 3 4 5 5 6 7 4 3 4 3 5 5 5 9 10 8 6 7 9 12 10 9 9 9 11 14 13 12 11 11 9 9 10 10 11 11 13 14 14 14 16 17 17 16 17 17 17 17 16 15 15 15 14 13 11 10
5 5 5 5 4 4 4 5 5 4 5 5 5 5 6 6 6 6 6 5 6 7 8 9 8 7 6 4 5 6 7 9 10 8 6 7 10 10 9 10 9 8 10 13 14 12 11 10 9 9 9 10 10 11 13 14 14 14 16 17 17 17 18 18 18 18 16 15 15 15 14 13 12 10
6 5 6 6 6 6 6 6 6 6 6 7 7 7 7 7 8 7 7 7 7 8 9 9 9 8 7 6 6 6 7 8 7 8 8 8 9 7 7 10 10 8 9 12 14 13 10 10 9 9 9 9 10 11 12 14 14 14 15 17 17 17 19 19 19 18 17 16 16 15 15 14 12 10
8 6 7 8 8 8 8 8 8 7 8 7 7 8 8 8 9 8 8 8 8 8 8 8 9 9 9 9 8 7 8 8 8 9 9 8 8 7 6 9 9 9 9 10 14 13 10 10 9 8 9 9 10 11 12 13 14 14 15 16 17 18 18 19 19 19 18 18 17 16 16 15 13 11
9 9 9 9 9 9 9 9 9 8 8 8 8 8 8 8 9 8 9 9 9 10 9 8 9 10 10 9 8 8 9 9 9 9 9 9 9 8 8 9 10 11 10 10 13 13 10 10 10 9 9 9 10 10 11 13 14 14 14 15 16 17 18 19 19 18 18 18 18 17 16 15 13 11
10 10 10 10 10 10 10 9 10 9 9 9 9 9 8 9 9 9 9 10 10 10 10 10 9 10 10 10 10 10 10 9 9 10 10 10 9 9 9 10 9 10 9 10 13 12 11 10 10 10 10 10 10 10 10 12 13 13 14 14 15 16 16 18 18 18 18 17 17 17 16 15 14 13
11 12 11 11 10 10 11 10 10 10 10 10 10 10 9 9 10 10 10 11 11 11 12 11 11 11 11 12 11 11 10 10 10 10 10 10 10 10 10 9 7 9 12 11 10 10 11 11 9 9 10 11 11 11 10 11 12 13 13 14 14 14 16 17 18 18 17 16 16 16 16 15 14 14
13 13 12 12 12 12 12 12 11 11 11 10 10 10 10 10 10 10 11 11 12 12 13 13 12 12 12 13 12 11 11 11 10 10 10 11 11 10 10 8 8 11 13 11 8 8 10 11 10 10 10 11 12 11 11 11 11 12 13 13 14 14 15 17 17 17 17 16 16 15 15 15 15 14
14 14 14 14 14 14 14 13 13 12 11 11 11 11 11 11 11 11 12 12 13 13 13 13 13 13 13 13 12 11 11 11 11 11 11 11 10 9 9 9 9 10 9 8 9 10 8 9 11 11 10 10 11 11 12 11 10 10 11 12 13 13 14 16 17 17 17 16 15 15 15 14 14 14
15 15 15 15 15 16 16 15 14 13 12 12 12 12 11 11 12 12 12 13 13 13 14 14 14 14 13 12 12 12 11 11 12 11 11 10 10 9 10 11 10 10 9 9 10 10 8 10 11 11 12 11 10 11 12 12 10 9 11 12 12 13 13 15 16 16 16 16 15 14 14 14 14 14
16 16 16 16 16 16 16 16 16 16 15 13 12 11 11 11 12 13 13 13 13 13 14 14 14 13 13 13 13 13 12 12 12 11 11 11 11 10 11 11 10 10 10 10 9 8 9 11 12 12 13 12 11 11 12 13 11 9 11 11 12 12 13 14 16 16 15 15 14 14 14 14 14 14
17 17 17 17 17 16 15 15 17 19 19 19 17 15 13 13 12 13 14 14 14 14 14 15 14 14 14 14 13 13 13 12 12 12 12 11 10 10 11 11 11 10 10 11 10 10 10 12 12 11 12 13 11 10 11 14 12 11 12 12 11 11 12 13 14 14 14 14 13 13 13 13 14 13
18 19 19 18 18 18 18 18 20 22 24 24 23 22 20 19 17 16 15 14 15 15 16 16 16 15 15 15 14 14 13 13 12 12 11 10 10 10 10 11 11 10 10 11 12 12 12 12 13 12 12 13 10 9 12 14 13 13 14 12 10 11 11 12 13 13 13 13 12 12 12 13 13 12
19 19 20 20 20 20 20 20 21 23 25 25 25 24 23 24 24 24 22 20 18 16 16 16 17 17 17 16 15 15 14 13 12 11 11 11 11 12 11 12 12 11 10 11 12 13 14 13 13 14 14 14 13 14 16 16 15 15 15 12 9 10 10 10 11 11 11 12 11 11 11 11 11 11
21 21 21 20 21 20 20 20 20 21 22 23 24 24 23 24 25 27 28 28 27 24 20 18 18 18 17 16 16 15 14 13 12 11 11 12 12 13 13 14 14 13 11 12 13 15 14 14 14 15 15 14 16 19 18 17 17 15 14 12 9 9 8 8 9 9 9 10 10 10 10 10 10 9
22 22 22 22 22 22 21 21 20 20 20 21 22 23 24 25 27 27 29 30 31 31 30 27 26 24 21 19 18 16 15 14 14 13 13 13 14 14 15 15 16 16 15 15 16 16 16 15 16 17 15 12 16 20 19 17 16 14 13 12 10 7 7 7 7 7 8 8 9 9 9 8 8 7
25 24 23 23 22 23 23 24 24 23 21 21 21 22 22 23 24 26 28 30 31 33 35 35 35 33 30 25 22 19 18 17 17 16 15 15 14 14 15 16 17 18 17 17 16 16 16 15 14 16 14 9 13 18 18 15 14 13 12 12 10 7 6 5 5 5 6 7 7 8 7 7 5 5
27 27 26 25 24 24 25 26 27 27 25 22 21 21 21 21 21 23 24 27 29 31 33 36 37 36 33 30 27 24 22 21 20 18 17 16 15 14 15 15 17 17 16 16 17 17 17 15 13 15 13 8 13 16 17 15 14 14 13 11 9 7 6 4 4 4 4 5 6 6 6 5 4 4
27 28 29 29 27 26 27 28 28 28 28 26 24 22 22 21 22 23 22 24 27 29 30 32 33 35 34 32 30 29 28 27 24 21 18 16 16 15 15 15 16 16 16 15 16 17 17 15 14 14 14 12 12 14 15 16 15 14 13 11 9 7 5 4 4 3 2 3 4 5 5 3 3 5
27 28 31 32 30 29 28 29 29 28 29 29 27 25 23 23 24 24 22 22 25 27 29 30 30 31 31 31 31 31 31 31 30 27 24 20 17 17 16 16 16 17 17 17 16 16 17 15 14 14 13 14 14 14 14 16 17 16 14 12 9 8 6 5 5 4 2 1 2 3 4 2 3 6
25 27 30 33 35 35 32 30 29 28 29 30 28 26 24 25 26 25 23 22 23 24 27 30 32 32 31 30 31 31 32 33 32 32 31 25 21 19 19 18 15 14 15 16 15 16 17 15 14 14 12 11 12 12 14 16 17 16 15 13 11 9 7 6 6 5 3 2 1 1 2 1 3 5
23 24 25 28 32 36 37 36 34 32 30 30 28 26 25 26 26 23 22 23 24 23 23 25 28 30 31 31 32 31 33 35 35 36 35 31 25 22 22 21 18 16 17 16 14 15 16 15 15 15 13 11 11 8 11 15 16 16 16 15 13 10 9 8 8 7 5 4 3 1 1 1 3 5
22 22 23 24 27 30 34 36 37 37 36 35 32 30 29 29 27 24 21 21 22 23 24 24 23 24 26 28 28 28 28 30 30 32 35 35 31 27 25 23 22 21 22 20 17 17 17 15 15 15 15 15 14 10 9 13 14 16 17 15 14 13 11 10 10 10 8 6 4 3 2 2 3 4
22 23 24 24 24 26 28 30 32 35 37 38 39 38 37 35 33 30 26 22 20 20 21 22 23 23 23 24 24 23 23 24 23 24 28 33 34 33 30 27 25 24 23 21 20 20 19 17 17 16 15 15 15 14 12 12 13 16 16 15 16 16 13 11 11 12 11 9 7 5 3 3 3 3
22 22 23 23 24 25 27 28 28 30 32 35 38 39 40 40 39 37 33 27 23 22 21 21 21 22 22 24 24 24 23 23 23 22 22 25 29 32 32 31 30 29 26 23 21 22 22 20 18 18 17 16 15 14 14 14 12 15 17 16 16 15 13 11 13 13 12 11 10 8 5 4 4 5
22 22 21 21 21 23 25 27 28 28 29 32 33 34 36 37 38 40 38 31 25 24 23 23 23 23 23 24 24 24 23 22 22 23 23 23 24 26 29 31 31 31 30 26 24 23 24 22 20 19 19 18 17 16 15 15 13 14 18 17 15 16 15 13 13 13 12 12 13 11 9 7 5 5
25 25 24 22 21 20 21 22 24 27 30 31 31 31 31 33 36 40 39 32 26 25 25 24 25 26 27 27 26 25 24 23 22 22 22 23 23 23 25 27 29 30 30 28 26 25 24 24 22 21 20 20 20 19 17 17 16 14 18 18 16 17 18 16 15 15 14 14 14 13 11 10 8 7
30 30 29 28 27 26 24 22 22 24 26 28 29 29 30 32 35 38 36 30 26 26 27 26 26 26 26 26 27 26 26 25 24 23 22 23 23 23 24 25 26 27 27 26 26 26 25 25 24 23 22 21 21 22 20 19 18 16 18 20 17 16 17 19 18 17 17 16 15 14 12 11 10 10
36 35 33 32 32 33 33 33 31 29 27 27 29 31 33 34 37 37 34 29 27 28 27 27 27 26 24 25 25 26 27 28 27 26 25 24 23 24 24 24 24 25 25 26 26 26 26 26 25 25 24 23 22 23 23 22 21 19 18 19 18 16 16 19 20 19 19 18 16 14 14 12 12 12
30 32 31 30 29 29 31 33 33 32 31 30 30 31 33 35 37 38 34 30 29 28 27 26 26 25 25 25 25 25 26 27 27 27 26 25 25 25 24 23 23 24 24 25 26 26 28 28 28 27 27 26 27 26 23 22 23 22 19 18 20 18 16 18 20 20 20 20 17 16 16 14 13 13
18 24 27 25 22 20 23 27 28 28 29 29 29 28 28 28 29 31 32 32 32 30 28 26 26 25 25 26 26 26 26 27 27 26 26 27 26 25 24 25 25 25 24 24 24 24 25 26 28 29 28 29 31 31 27 22 21 23 22 20 20 20 18 18 19 21 22 22 19 16 16 15 14 13
19 21 22 19 17 17 20 24 26 26 26 26 26 26 27 26 26 26 27 29 30 30 30 29 28 26 26 25 25 25 25 26 26 26 27 27 26 26 26 26 25 25 25 24 24 23 23 24 26 28 28 29 31 34 33 27 22 22 24 23 21 20 19 19 19 21 24 25 21 16 15 15 15 15
21 21 20 18 18 17 19 22 26 27 26 26 25 24 25 26 27 27 27 27 27 28 29 29 29 28 27 26 25 25 25 25 25 25 26 27 26 26 27 26 26 25 24 24 24 23 23 24 24 23 23 24 24 26 32 33 29 24 23 23 23 21 19 20 21 22 23 25 21 17 15 15 15 16
20 19 18 19 19 18 20 23 26 27 28 28 28 27 26 26 27 28 28 29 28 27 26 27 27 27 27 26 25 25 25 24 24 25 25 25 26 26 26 26 26 25 24 25 24 23 23 24 23 22 21 18 14 15 23 31 35 31 26 23 25 25 22 21 23 23 23 23 21 19 16 14 14 15
24 23 22 22 22 22 23 25 26 27 29 30 29 29 29 29 28 28 28 30 31 30 29 28 26 25 25 25 25 24 24 24 24 24 25 26 26 25 25 26 26 25 24 25 25 24 23 22 22 22 19 13 10 12 17 23 30 35 34 29 26 26 25 25 24 25 24 23 21 20 18 15 14 14
28 27 26 26 26 25 26 26 26 27 29 29 29 31 30 29 30 30 28 28 28 29 28 28 28 27 25 21 20 21 22 23 23 24 25 26 26 26 25 26 25 24 24 26 26 25 24 23 21 23 20 14 12 14 17 18 24 34 41 40 33 27 26 27 26 25 25 24 22 20 19 17 16 14
30 29 27 27 27 26 26 27 28 28 29 29 29 29 29 29 30 30 28 29 29 28 27 26 24 20 15 13 16 20 21 21 23 25 26 26 26 26 26 26 25 25 24 25 26 24 24 26 25 25 26 25 23 21 20 19 21 26 35 42 41 31 25 27 27 24 24 24 21 19 19 17 15 14
32 32 30 28 26 25 26 28 29 29 30 31 30 30 30 30 30 29 30 29 24 17 14 13 13 12 14 19 24 27 26 26 28 29 30 29 27 28 28 27 26 25 23 23 25 24 25 29 30 28 29 30 29 27 25 22 19 17 21 34 43 37 28 27 28 24 22 24 23 20 19 17 15 14
26 29 29 28 27 27 29 31 31 30 30 30 30 30 30 30 30 31 29 21 11 9 10 13 17 21 26 32 33 31 30 31 31 31 32 32 30 32 32 30 27 25 23 23 25 25 26 29 32 32 32 31 29 25 19 15 14 13 14 24 37 38 27 24 26 24 21 23 24 21 19 19 17 15
22 24 26 27 27 28 30 31 32 32 32 32 31 30 29 30 30 30 25 19 18 22 25 26 27 28 30 33 35 33 32 34 34 33 33 32 31 31 31 30 29 27 24 24 27 27 25 27 30 31 32 33 29 21 13 13 16 14 12 17 31 37 30 24 26 25 22 22 23 20 18 18 17 15
21 23 25 28 29 29 29 30 31 32 31 31 31 30 28 27 26 25 24 24 27 29 28 29 31 32 31 33 34 33 32 32 32 32 32 32 31 30 28 29 30 30 27 27 28 27 25 28 31 30 29 31 30 24 22 23 20 11 10 14 24 34 35 30 26 24 23 22 20 17 14 14 12 10
18 19 22 23 23 24 25 26 28 28 28 29 30 28 24 23 23 24 24 24 26 26 28 31 34 34 34 34 33 31 30 29 28 28 30 31 31 30 28 27 28 28 28 29 29 27 26 29 32 29 28 30 30 27 25 21 13 7 12 16 20 28 35 36 29 23 21 21 20 16 12 11 10 8
14 16 18 19 18 17 18 19 20 21 22 24 24 22 21 24 27 26 24 23 24 25 27 30 31 31 32 33 32 30 30 29 27 28 30 31 31 30 29 28 27 26 27 28 28 26 25 26 28 27 26 26 25 23 21 18 13 11 16 19 18 21 28 32 30 25 20 21 24 22 17 15 14 12
Wind_Direction
236 222 205 223 252 257 267 273 268 295 296 258 231 240 265 289 297 295 277 256 224 236 247 210 170 195 248 263 267 273 266 272 307 334 322 305 293 302 321 339 351 353 355 359 359 3 12 17 23 25 24 24 22 22 22 18 16 16 16 19 22 20 16 12 9 6 1 356 355 358 359 360 4 3
239 241 220 215 237 248 244 254 251 198 209 239 236 233 226 236 271 283 287 282 269 265 272 257 181 159 239 263 272 267 271 284 301 317 311 290 279 300 320 333 341 343 346 356 358 1 10 14 17 17 16 18 18 19 21 19 17 17 19 23 24 20 15 12 11 9 5 0 359 4 6 6 8 10
224 228 242 238 238 252 252 253 255 236 226 237 234 232 229 230 248 263 258 262 268 271 272 272 281 274 255 271 284 279 283 288 295 306 300 278 285 304 312 314 325 330 334 346 353 358 7 11 11 9 8 12 12 12 16 16 16 16 19 23 24 20 15 13 14 13 8 5 5 8 14 15 14 14
230 212 226 235 232 242 248 249 254 248 241 244 237 229 232 237 240 244 247 254 264 267 270 277 285 277 267 272 274 274 282 286 294 307 296 283 297 301 294 298 308 312 322 339 348 353 2 6 4 1 359 3 4 5 8 10 11 14 17 20 22 19 16 14 15 15 13 11 10 13 19 23 21 18
239 217 222 234 234 238 242 246 252 251 244 241 240 237 234 238 242 240 242 254 263 265 269 278 280 277 277 278 268 268 280 282 289 302 295 288 294 293 281 282 289 298 308 325 340 346 354 360 358 354 353 353 353 356 359 2 7 12 13 16 18 18 16 15 17 18 17 16 15 18 23 26 26 23
240 233 232 237 238 240 241 243 247 251 249 243 240 240 237 240 244 239 240 253 265 267 267 270 272 271 269 269 268 268 277 282 285 290 290 289 290 292 287 274 273 285 291 308 331 339 346 353 351 348 346 342 343 347 349 354 2 8 11 13 15 17 15 15 18 21 21 20 18 19 23 27 27 26
235 236 238 240 241 241 240 243 247 249 251 251 249 247 243 245 248 244 241 248 260 267 268 266 268 271 267 265 271 273 273 275 277 280 282 287 287 285 292 280 261 263 279 303 322 328 336 345 344 342 340 334 332 337 341 347 355 3 8 11 14 16 14 14 18 22 23 24 21 19 20 24 26 29
232 234 236 239 242 246 245 245 248 251 251 251 252 252 250 249 252 251 247 246 253 264 271 270 268 274 277 275 275 275 273 271 270 270 273 281 282 277 289 289 260 256 283 301 307 316 327 332 334 335 334 329 326 327 332 339 348 356 3 9 13 14 12 12 17 21 24 26 24 21 18 19 24 29
232 234 236 238 240 244 247 246 246 250 252 250 250 251 250 248 249 250 249 248 251 256 264 270 271 273 274 274 273 271 271 271 270 268 267 271 274 272 281 289 279 281 289 283 283 306 319 318 319 325 327 325 323 321 324 330 339 349 357 5 11 12 10 10 14 20 23 25 26 24 19 16 20 27
232 234 235 235 236 238 241 244 244 245 247 249 249 250 253 253 252 252 251 250 251 253 258 264 268 270 268 269 269 266 265 269 272 276 277 275 272 267 270 279 286 287 280 266 264 290 308 311 309 313 321 324 321 319 321 322 328 340 351 0 7 10 9 8 12 17 21 22 23 23 22 18 17 21
230 233 234 234 235 236 238 242 244 245 245 246 247 248 251 253 254 255 253 252 252 253 257 260 262 264 264 265 265 264 262 263 266 272 276 276 272 266 266 272 280 283 274 262 263 265 276 300 307 305 308 314 313 313 319 321 318 329 345 354 1 7 8 6 9 14 18 20 20 19 20 19 17 18
228 232 236 237 236 234 235 237 241 244 245 246 249 248 247 248 251 254 256 256 254 254 257 260 262 265 266 266 268 270 267 260 261 266 268 271 273 271 271 270 270 276 276 269 260 244 253 289 298 294 294 297 296 298 310 315 310 320 338 348 357 3 6 6 7 11 15 16 17 16 17 17 17 17
229 232 236 239 240 238 235 233 235 239 240 242 247 250 250 249 249 251 254 258 258 258 259 260 262 264 264 263 261 261 259 257 260 265 266 270 275 275 277 275 270 272 274 275 266 242 254 276 278 282 290 287 283 288 300 304 302 315 333 340 351 359 4 6 6 7 11 14 13 13 14 17 17 16
231 233 236 240 242 243 241 237 237 240 242 243 246 248 247 247 249 251 252 254 255 256 257 259 261 261 261 261 259 258 258 256 258 260 260 265 274 279 281 280 279 274 268 273 274 265 269 273 267 272 275 269 271 279 284 292 296 307 320 329 342 354 1 6 6 5 7 10 11 10 12 17 19 16
234 236 237 240 242 241 241 242 244 247 249 250 252 251 248 244 243 245 248 252 253 254 255 257 259 261 263 264 264 266 268 267 266 268 267 270 277 281 281 281 282 278 267 267 270 269 273 274 269 269 263 259 263 252 255 276 287 292 304 317 333 348 358 3 4 3 5 7 7 7 10 17 20 17
235 237 239 241 241 240 239 237 240 246 251 254 255 254 251 247 243 242 244 247 249 252 256 259 259 260 264 266 264 264 267 271 276 277 273 271 273 273 274 276 279 280 273 268 269 271 275 273 265 260 258 260 255 240 246 266 274 279 294 306 321 340 353 2 1 0 3 5 5 5 8 16 21 19
235 237 240 242 243 244 243 239 235 237 244 251 256 255 253 249 246 243 242 244 245 247 252 257 259 259 260 263 263 262 266 269 269 268 265 264 264 264 266 270 274 277 275 270 272 274 276 276 269 261 259 257 249 242 247 261 267 275 291 299 309 331 346 356 358 358 3 5 5 6 8 15 22 22
237 237 237 239 241 243 244 242 238 234 234 241 249 254 254 253 251 248 245 244 244 244 245 247 251 253 254 257 259 260 262 260 255 253 255 258 259 260 264 268 270 272 270 270 275 275 273 276 275 271 267 250 241 246 249 255 265 277 289 294 300 318 338 347 349 354 4 7 8 10 11 16 22 24
240 240 239 239 240 240 241 241 240 237 234 233 239 244 248 250 250 249 248 247 246 245 244 245 248 250 250 251 254 255 255 254 252 250 250 254 260 263 264 266 267 269 268 264 263 266 271 275 274 275 275 239 224 245 254 255 270 284 289 291 293 302 323 332 334 348 4 11 13 17 20 21 21 25
238 239 239 239 240 240 241 242 241 239 236 235 236 239 242 244 245 246 247 248 249 249 248 248 249 251 251 250 250 252 252 252 252 252 249 249 251 255 258 260 262 266 268 261 254 254 261 269 270 274 279 244 216 240 257 261 269 280 283 284 284 289 302 307 311 334 358 13 20 24 28 27 29 35
235 235 236 237 238 239 241 242 243 241 238 235 237 241 243 246 248 248 249 249 249 250 252 252 252 253 253 252 250 248 249 248 248 249 248 242 240 244 249 254 258 262 265 264 261 256 254 258 263 267 274 264 237 237 251 258 258 261 265 269 273 275 276 278 286 304 340 8 22 34 38 39 61 55
233 234 235 235 235 236 239 240 241 241 239 236 236 240 244 247 249 250 251 252 252 251 251 252 253 253 254 253 251 248 247 246 245 244 244 240 240 243 246 251 257 262 264 262 263 265 261 260 261 262 267 269 256 241 243 250 248 243 247 253 257 258 255 253 257 260 276 343 9 41 46 54 91 86
233 234 237 237 237 237 238 238 239 239 238 235 234 237 242 245 247 249 250 252 254 251 246 244 246 248 249 250 250 249 248 246 243 242 241 240 240 243 246 249 253 259 262 257 252 255 258 257 257 259 260 265 262 244 233 238 239 234 237 246 248 244 238 236 240 240 236 249 265 56 62 78 105 113
234 235 236 238 240 241 241 240 239 238 238 236 233 233 238 241 245 249 250 251 253 253 249 245 243 244 246 248 248 250 250 248 246 244 242 239 237 240 244 245 245 249 256 256 250 248 250 250 253 257 257 263 271 248 215 224 235 234 235 241 240 231 223 224 230 230 226 227 227 214 139 109 114 125
238 238 238 239 241 243 245 245 243 240 240 240 237 235 237 241 245 249 252 254 254 254 254 252 248 245 244 244 244 245 248 248 245 244 244 241 236 234 237 240 242 247 252 254 252 248 246 247 252 257 260 262 267 261 225 216 225 231 233 233 226 219 220 225 228 227 225 225 217 206 197 148 120 123
241 242 241 242 243 244 247 249 247 245 244 243 242 242 243 245 246 247 250 255 258 258 257 256 254 249 245 244 242 241 243 244 240 239 242 243 239 235 235 237 240 246 251 253 252 247 241 244 249 254 258 259 261 263 251 230 215 211 214 215 212 215 222 224 221 221 225 232 231 214 195 169 140 127
246 247 246 247 247 247 249 250 250 249 246 244 245 247 248 249 249 248 248 250 253 256 258 259 260 257 251 248 246 245 244 245 245 241 240 241 240 238 238 239 240 245 250 253 254 251 245 244 246 246 250 255 259 258 256 251 229 200 197 205 208 209 212 208 208 214 217 222 226 221 207 187 167 151
250 251 252 253 252 251 250 252 253 253 251 249 248 250 251 253 252 250 248 247 247 248 249 250 253 254 251 248 247 246 246 247 249 250 248 245 239 236 238 241 243 245 247 248 251 251 247 245 245 245 245 248 254 255 253 256 246 206 193 201 205 202 202 200 204 215 213 209 217 225 226 219 203 177
250 253 256 258 260 261 258 255 254 253 253 253 253 253 255 255 253 250 247 244 241 241 241 241 243 244 245 246 246 246 247 248 248 250 252 253 247 240 239 242 244 245 246 246 247 247 246 244 243 244 245 244 248 252 250 253 253 225 199 198 204 207 206 200 199 209 212 209 215 221 221 218 214 209
249 251 254 256 260 265 268 267 262 257 255 255 254 255 254 252 250 248 245 240 235 235 236 236 238 240 241 242 244 244 245 246 246 245 247 251 251 247 242 240 240 240 241 243 244 243 244 244 242 242 244 243 245 247 246 247 251 237 214 208 211 215 209 198 195 203 208 209 214 216 213 213 211 209
252 253 256 258 260 263 267 268 267 265 262 258 255 253 251 250 248 247 242 237 234 233 233 234 237 239 240 240 240 240 239 240 241 241 242 244 245 245 244 242 241 241 240 240 242 242 242 244 244 242 241 241 242 244 245 245 246 243 230 220 217 218 207 193 193 202 205 203 209 213 210 210 212 210
255 255 256 258 261 263 264 264 262 260 257 253 250 248 248 248 248 246 242 238 236 235 234 235 235 235 236 237 236 236 237 237 236 235 236 239 241 241 243 244 243 243 243 242 242 242 242 241 242 242 239 239 241 242 243 243 241 242 240 228 217 217 212 196 195 203 203 198 204 212 209 210 216 215
252 254 253 252 252 254 258 259 256 251 248 244 241 239 239 239 240 238 234 231 232 232 231 231 231 230 231 233 234 234 235 235 234 232 232 234 237 238 240 243 244 244 245 245 242 240 239 238 240 242 240 239 241 242 242 242 239 238 238 229 216 216 220 211 203 203 201 197 200 208 209 211 218 220
252 252 250 247 245 247 253 256 253 249 245 242 238 236 234 232 231 231 228 226 226 227 226 226 227 227 228 230 231 232 234 235 235 233 232 232 234 235 237 241 244 244 245 246 244 241 238 236 237 239 239 239 241 242 241 240 239 236 233 229 221 217 217 212 208 206 202 198 197 203 210 212 216 220
254 250 248 249 250 250 253 255 255 253 250 247 244 241 237 233 229 228 230 231 230 227 224 224 224 223 224 227 228 230 232 235 235 235 234 233 233 236 238 241 243 243 242 243 243 242 240 236 231 229 231 233 238 243 241 238 236 233 229 228 229 226 216 208 209 207 200 195 196 201 210 216 218 217
250 248 249 253 255 255 255 256 257 257 255 254 252 249 246 242 234 228 227 230 233 234 234 231 228 225 224 224 227 229 232 235 237 238 238 237 236 237 239 242 245 245 244 244 244 242 241 237 228 222 224 226 231 241 240 235 233 229 223 222 229 227 216 209 210 206 196 191 194 199 207 217 221 217
246 244 244 248 252 256 257 256 255 256 257 257 256 254 252 250 245 239 235 231 228 231 237 239 237 236 233 228 227 228 230 233 237 240 241 242 243 243 241 242 244 244 243 245 246 242 242 239 224 214 219 226 228 236 241 238 235 230 223 219 223 223 214 207 207 204 196 193 195 197 202 212 220 223
247 244 242 244 248 252 255 257 256 256 257 257 256 256 255 254 252 250 246 239 229 226 230 234 237 241 242 238 236 237 239 239 241 243 246 247 248 249 247 245 245 243 241 245 246 243 243 241 221 204 207 220 229 236 242 239 233 229 225 221 220 218 210 202 201 200 196 195 197 199 200 208 217 222
249 244 241 244 247 250 254 256 255 254 255 256 255 255 255 254 253 252 250 245 239 233 230 233 239 248 258 259 251 247 248 248 245 246 249 249 248 251 251 247 245 244 243 244 244 239 240 242 229 209 205 216 226 235 242 243 239 235 229 223 219 218 210 200 198 199 197 194 194 196 198 203 211 217
256 252 248 248 250 253 256 256 253 251 252 252 251 252 253 253 253 252 250 248 249 249 248 252 260 265 262 252 243 237 237 238 236 237 240 241 241 244 246 243 241 240 239 240 241 236 234 239 237 225 215 219 230 241 250 257 255 245 231 222 218 215 211 201 196 197 198 196 192 192 194 199 207 215
251 249 248 248 249 251 252 253 251 249 249 249 248 248 249 252 254 255 254 255 266 279 271 261 255 248 243 242 240 237 237 239 237 235 237 239 239 238 237 234 231 229 228 232 237 236 235 239 243 240 232 229 235 244 252 258 248 228 217 217 213 209 207 204 200 201 205 201 194 193 193 193 199 206
246 242 241 241 242 244 246 249 249 248 248 248 249 248 248 249 252 253 254 256 258 255 251 246 243 241 240 240 240 238 239 242 243 240 238 239 239 237 232 227 225 222 221 224 230 232 236 243 248 248 241 233 232 234 234 236 232 215 193 199 205 203 204 205 203 207 213 207 201 203 200 191 192 198
255 253 250 245 242 244 248 250 249 249 249 249 250 250 251 253 255 255 252 251 249 248 246 245 244 244 245 245 242 239 238 241 245 244 241 238 238 237 232 226 225 224 221 223 229 232 237 243 247 247 238 228 224 226 229 236 240 220 169 175 194 201 206 207 203 204 209 203 199 208 208 193 191 196
256 262 265 263 258 256 259 260 258 259 263 264 263 261 260 262 264 262 256 251 248 246 245 245 244 245 246 248 246 242 240 242 246 248 247 244 241 239 237 234 234 232 229 230 232 232 233 237 241 240 233 224 222 226 233 242 251 224 191 194 195 199 206 209 207 207 211 206 204 213 221 213 214 223
266 268 274 281 282 279 281 283 278 275 278 280 279 277 273 268 264 261 258 254 251 249 247 245 241 240 241 243 244 244 245 247 246 246 248 248 245 244 244 243 242 240 237 234 232 230 228 228 230 230 227 223 223 226 232 241 248 226 204 198 190 190 199 206 206 210 217 213 206 210 223 233 240 251